Terug naar catalogus

ONEWEB-0207

ActiefCommunicatiePO
NORAD 48242·PAYLOAD·🇬🇧 United Kingdom

Gelanceerd Apr 25, 2021 vanaf Vostochny Cosmodrome

Loading…

Volgende Passages (komende 24 uur)

TLE

VersSource: CelesTrak SupGP

Epoch: Sep 15, 2026, 03:57 UTC

1 48242C 21031AJ  26258.16508516 -.00004630  00000+0 -12505-1 0  2588
2 48242  87.8900 271.7585 0002029 102.4502 337.3448 13.14505989    14

Volg ONEWEB-0207 in realtime met AllMySat

Download on the App Store